軌道要素
Epoch 2021 July 5.0 TT = JDT 2459400.5
T 2021 July 20.20505 TT Rudenko
q 2.1398781 (2000.0) P Q
n 0.13789881 Peri. 186.03929 -0.70886854 +0.68371252
a 3.7104709 Node 39.02530 -0.63507146 -0.51175380
e 0.4232866 Incl. 15.97815 -0.30690329 -0.52023575
P 7.15
From 815 observations 2014 Jan. 6-2021 July 5, mean residual 1".0.
|